Current weather by "City, St" or "zip code"  
 

Current Conditions: Alexandria, Alexandria International Airport, LA

Fair


74.0 F

Last Updated on Sep 18 2020, 1:53 am CDT
Humidity: 69%
Wind Speed: N 5.8 mph
Barometer 29.94 in
Dewpoint: 63.0 F
Visibility: 10.00 mi
Precip: --
Heat Index: NA
Wind Chill: NA
Current conditions at:

Alexandria, Alexandria International Airport, LA (KAEX)

Lat: 31.33472 Lon: 92.55861

Local Radar Image active severe weather and emergency alerts image image weather storm and storm spotter reports image weather observation monitoring service image
Local
Radar
Active
Alerts
Storm Reports Obs
Monitoring

Sign-up For Email & Text Message Weather Alert Notification Services



Advertise Here

Observation History for Alexandria, Alexandria International Airport, LA


Time Wind
(mph)
Vis
(mi)
Weather Precip (in) Temperature (F) Relative
Humidity
Wind
Chill
(F)
Heat
Index
(F)
Pressure
Air Dwpt altimeter
(in)
sea level
(mb)
Rmks
1:53 am CDT N 5.8 10.00 Fair -- 74.0 63.0 69% NA NA 29.94 1014.1
12:53 am CDT N 5.8 10.00 Fair -- 75.0 66.0 74% NA NA 29.94 1014.1
11:53 pm CDT NE 8.1 10.00 Fair -- 76.0 69.1 79% NA NA 29.95 1014.3
10:53 pm CDT N 0.0 10.00 Fair -- 76.0 70.0 82% NA NA 29.94 1014.1
9:53 pm CDT N 3.5 10.00 Fair -- 77.0 71.1 82% NA NA 29.92 1013.5
8:53 pm CDT NW 4.6 10.00 Fair -- 78.0 71.1 79% NA NA 29.91 1013.1
7:53 pm CDT N 5.8 10.00 Fair -- 80.0 70.0 71% NA 83 29.88 1012.0
6:53 pm CDT N 5.8 10.00 Fair -- 82.0 70.0 67% NA 86 29.88 1012.1
5:53 pm CDT N 5.8 10.00 Fair -- 85.0 69.1 59% NA 89 29.87 1011.7
4:53 pm CDT 3.5 10.00 A Few Clouds -- 87.0 69.1 55% NA 91 29.87 1011.8
3:53 pm CDT N 9.2 10.00 Mostly Cloudy -- 87.0 69.1 55% NA 91 29.88 1012.0
2:53 pm CDT N 9.2 10.00 Mostly Cloudy -- 88.0 70.0 55% NA 93 29.90 1012.6
1:53 pm CDT N 9.2 10.00 Partly Cloudy -- 86.0 69.1 57% NA 90 29.91 1012.9
12:53 pm CDT N 0.0 10.00 Mostly Cloudy -- 83.0 69.1 63% NA 87 29.93 1013.8
11:53 am CDT NE 10.4 10.00 Mostly Cloudy -- 83.0 69.1 63% NA 87 29.94 1014.1
10:53 am CDT NE 6.9 10.00 Mostly Cloudy -- 80.0 69.1 69% NA 83 29.95 1014.4
9:53 am CDT NE 8.1 10.00 Mostly Cloudy -- 77.0 69.1 77% NA NA 29.95 1014.6
8:53 am CDT N 3.5 10.00 A Few Clouds -- 74.0 69.1 85% NA NA 29.93 1013.7
7:53 am CDT N 8.1 10.00 Fair -- 74.0 69.1 85% NA NA 29.90 1012.9
6:53 am CDT N 5.8 10.00 Partly Cloudy -- 73.0 69.1 87% NA NA 29.89 1012.5
5:53 am CDT N 4.6 10.00 Fair -- 73.0 70.0 90% NA NA 29.88 1012.1
4:53 am CDT N 3.5 10.00 Fair -- 73.0 69.1 87% NA NA 29.87 1011.7
3:53 am CDT NE 4.6 10.00 Fair -- 75.0 69.1 82% NA NA 29.87 1011.6
2:53 am CDT N 4.6 10.00 Fair -- 75.0 70.0 84% NA NA 29.87 1011.8

Regional Weather Observation


Ft. Polk - Fullerton Landing Strip, LA (KBKB)

Fair
74.0 F

Alexandria Esler Regional Airport, LA (KESF)

Fair
72.0 F

Natchitoches, Natchitoches Regional Airport, LA (KIER)

Fair
71.0 F

Ft. Polk/Self Strip, LA (KDNK)

Light Rain
66.0 F

Ft. Polk - Peason Ridge, LA (KAQV)

A Few Clouds
82.0 F

Fort Polk, Polk AAF Ft Polk, LA (KPOE)

A Few Clouds
74.0 F